Regional Weather Roundup
Issued by NWS

Home | Current Version | Previous Version | Text Only | Print | Product List | Glossary Off
Versions: 1 2 3 4 5 6 7 8 9 10 11 12 13 14 15 16 17 18 19 20 21 22 23 24 25 26 27 28 29 30 31 32 33 34 35 36 37 38 39 40 41 42 43 44 45 46 47 48

000
ASUS45 KBOI 021210
RWRID

IDAHO REGIONAL WEATHER ROUNDUP
NATIONAL WEATHER SERVICE BOISE ID
600 AM MDT WED SEP 02 2015

NOTE: "FAIR" INDICATES FEW OR NO CLOUDS BELOW 12000 FEET
WITH NO SIGNIFICANT WEATHER AND/OR OBSTRUCTIONS TO VISIBILITY

IDZ012-014-021300-
SOUTHWEST IDAHO


CITY           SKY/WX    TMP DP  RH WIND       PRES   REMARKS
BOISE          MOCLDY    63  37  38 E3        29.82R
CALDWELL       MOCLDY    54  37  54 SE7       29.83R
MOUNTAIN HOME  PTCLDY    56  37  48 E7        29.83R
$$

IDZ016-017-021300-
SOUTHCENTRAL IDAHO


CITY           SKY/WX    TMP DP  RH WIND       PRES   REMARKS
BURLEY         CLEAR     59  37  44 W10       29.90R
JEROME         CLEAR     60  33  36 SE5       29.90R
TWIN FALLS     CLEAR     68  26  20 S15       29.90R
$$

IDZ019>023-021300-
SOUTHEAST IDAHO


CITY           SKY/WX    TMP DP  RH WIND       PRES   REMARKS
IDAHO FALLS    PTCLDY    61  40  45 SW9       29.92R
POCATELLO      CLEAR     71  36  27 SW14      29.92R
REXBURG        PTCLDY    67  38  34 S12       29.91S
$$

IDZ006-010-011-018-031-032-021300-
CENTRAL IDAHO MOUNTAINS


CITY           SKY/WX    TMP DP  RH WIND       PRES   REMARKS
MCCALL         MOCLDY    46  38  73 E3        29.87R
HAILEY         CLEAR     48  34  57 NW9       29.97S
STANLEY          N/A     37  26  64 CALM      30.00R
SALMON         MOCLDY    46  34  61 CALM      29.81S
CHALLIS        PTCLDY    49  29  46 CALM      29.89S
$$

IDZ002-004-006-007-026-021300-
NORTHERN IDAHO


CITY           SKY/WX    TMP DP  RH WIND       PRES   REMARKS
LEWISTON       CLOUDY    67  42  40 W6        29.76S
LOWELL           N/A     54  51  90 CALM      29.81R
COEUR D`ALENE  CLOUDY    61  45  55 S8        29.76S
MULLAN PASS    CLOUDY    46  35  65 VRB3      29.87F
$$



USA.gov is the U.S. government's official web portal to all federal, state and local government web resources and services.